Language: 


Des rapports , des résumés tant et plus, au choix de chacun....


Données statistiques de la station
Quotidien Rapport Septembre 12, 2017 Unités:  Métrique    Anglais   les deux
« Précédent Jour
Suivant Jour »
Quotidien Hebdomadaire Mensuel Annuel Actuel
  Haut: Bas: Moyen:
Température: 20.2 °C 0.0 °C 14.9 °C
Pt de rosée: 14.0 °C 8.0 °C 11.9 °C
Humidité: 98 % 0 % 80 %
Vitesse du vent: 31.4 km/h 0.0 km/h 10.6 km/h
Rafales: 37.0 km/h - -
Vent:- - WSW
Pression: 1009.0 hPa 999.9 hPa -
Précipitation: 0.3 mm    
Historical Graphs
 
 
Données statistiques pour Septembre 12, 2017
Heure Température Point de rosée Pression Vent Vitesse du vent Refales Humidité Pluie (taux horaire)
00:02 13.4 °C 13.0 °C 999.9 hPa WSW 10.1 km/h 12.6 km/h 98 % 0.0 mm
00:07 13.5 °C 14.0 °C 999.9 hPa SSW 12.2 km/h 12.2 km/h 98 % 0.0 mm
00:12 13.5 °C 14.0 °C 999.9 hPa WSW 13.7 km/h 13.7 km/h 98 % 0.0 mm
00:17 13.6 °C 14.0 °C 999.9 hPa SSW 12.6 km/h 13.7 km/h 98 % 0.0 mm
00:23 13.6 °C 14.0 °C 999.9 hPa WSW 11.9 km/h 12.6 km/h 98 % 0.0 mm
00:28 13.6 °C 14.0 °C 999.9 hPa WSW 8.7 km/h 16.3 km/h 98 % 0.0 mm
00:33 13.6 °C 14.0 °C 999.9 hPa SSW 9.7 km/h 16.3 km/h 98 % 0.0 mm
00:38 13.6 °C 14.0 °C 999.9 hPa WSW 10.5 km/h 13.7 km/h 98 % 0.0 mm
00:43 13.5 °C 14.0 °C 999.9 hPa WSW 7.6 km/h 13.7 km/h 98 % 0.0 mm
00:48 13.5 °C 14.0 °C 999.9 hPa SW 3.5 km/h 12.6 km/h 98 % 0.0 mm
00:53 13.3 °C 13.0 °C 999.9 hPa WSW 6.9 km/h 12.6 km/h 98 % 0.0 mm
00:58 13.3 °C 13.0 °C 999.9 hPa SSW 4.7 km/h 10.5 km/h 98 % 0.0 mm
01:03 13.3 °C 13.0 °C 999.9 hPa SW 4.0 km/h 9.3 km/h 98 % 0.0 mm
01:08 13.2 °C 13.0 °C 999.9 hPa WSW 9.3 km/h 9.3 km/h 98 % 0.0 mm
01:13 13.2 °C 13.0 °C 999.9 hPa SSW 6.9 km/h 10.5 km/h 98 % 0.0 mm
01:18 13.1 °C 13.0 °C 1000.9 hPa WSW 1.4 km/h 10.5 km/h 98 % 0.0 mm
01:23 13.1 °C 13.0 °C 1000.9 hPa WSW 6.1 km/h 8.7 km/h 98 % 0.0 mm
01:28 13.0 °C 13.0 °C 1000.9 hPa Calm   8.7 km/h 98 % 0.0 mm
01:33 12.8 °C 13.0 °C 1000.9 hPa West 7.9 km/h 7.9 km/h 98 % 0.0 mm
01:38 12.8 °C 13.0 °C 1000.9 hPa Calm   7.9 km/h 98 % 0.0 mm
01:43 12.5 °C 13.0 °C 1000.9 hPa Calm   7.9 km/h 98 % 0.0 mm
01:48 12.5 °C 13.0 °C 1000.9 hPa Calm   5.0 km/h 98 % 0.0 mm
01:53 12.5 °C 13.0 °C 1000.9 hPa Calm   5.0 km/h 98 % 0.0 mm
01:58 12.5 °C 13.0 °C 1000.9 hPa Calm   6.9 km/h 98 % 0.0 mm
02:03 12.6 °C 13.0 °C 1000.9 hPa SW 9.7 km/h 10.8 km/h 98 % 0.0 mm
02:08 12.6 °C 13.0 °C 1000.9 hPa SSW 5.5 km/h 10.8 km/h 98 % 0.0 mm
02:14 12.7 °C 13.0 °C 1000.9 hPa SSW 10.1 km/h 10.5 km/h 98 % 0.0 mm
02:19 12.7 °C 13.0 °C 1000.9 hPa South 9.3 km/h 10.1 km/h 98 % 0.0 mm
02:24 12.8 °C 13.0 °C 1000.9 hPa SSW 9.0 km/h 11.9 km/h 98 % 0.0 mm
02:29 12.8 °C 13.0 °C 1000.9 hPa WSW 8.7 km/h 11.9 km/h 98 % 0.0 mm
02:34 12.8 °C 13.0 °C 999.9 hPa WSW 4.0 km/h 11.6 km/h 98 % 0.0 mm
02:39 12.8 °C 13.0 °C 999.9 hPa WSW 4.3 km/h 11.6 km/h 98 % 0.0 mm
02:44 12.8 °C 13.0 °C 999.9 hPa Calm   6.4 km/h 98 % 0.0 mm
02:49 12.8 °C 13.0 °C 1000.9 hPa SW 6.4 km/h 10.1 km/h 98 % 0.0 mm
02:54 12.8 °C 13.0 °C 1000.9 hPa SW 7.9 km/h 10.1 km/h 98 % 0.0 mm
02:59 12.8 °C 13.0 °C 1000.9 hPa SSW 6.4 km/h 10.1 km/h 98 % 0.0 mm
03:04 0.0 °C 13.0 °C 1000.9 hPa SSW 6.1 km/h 9.0 km/h 0 % 0.0 mm
03:09 0.0 °C 13.0 °C 1000.9 hPa SSW 7.9 km/h 10.1 km/h 0 % 0.0 mm
03:14 0.0 °C 13.0 °C 1000.9 hPa WSW 6.1 km/h 10.1 km/h 0 % 0.0 mm
03:19 0.0 °C 13.0 °C 1001.9 hPa SSW 5.0 km/h 10.1 km/h 0 % 0.0 mm
03:24 12.8 °C 13.0 °C 1001.9 hPa WSW 9.7 km/h 9.7 km/h 98 % 0.0 mm
03:29 12.8 °C 13.0 °C 1001.9 hPa SW 5.8 km/h 9.7 km/h 98 % 0.0 mm
03:34 12.7 °C 13.0 °C 1000.9 hPa SSW 5.5 km/h 9.0 km/h 98 % 0.0 mm
03:39 12.7 °C 13.0 °C 1000.9 hPa WSW 7.9 km/h 9.0 km/h 98 % 0.0 mm
03:44 12.7 °C 13.0 °C 1000.9 hPa SW 10.5 km/h 10.5 km/h 98 % 0.0 mm
03:49 12.7 °C 13.0 °C 1001.9 hPa SSW 6.4 km/h 12.6 km/h 98 % 0.0 mm
03:54 12.7 °C 13.0 °C 1001.9 hPa SW 12.6 km/h 12.6 km/h 98 % 0.0 mm
03:57 12.7 °C 13.0 °C 1001.9 hPa SSW 9.7 km/h 12.6 km/h 98 % 0.0 mm
04:02 12.7 °C 13.0 °C 1001.9 hPa SSW 8.7 km/h 12.6 km/h 98 % 0.0 mm
04:07 12.7 °C 13.0 °C 1001.9 hPa WSW 6.9 km/h 9.7 km/h 98 % 0.0 mm
04:12 12.7 °C 13.0 °C 1001.9 hPa WSW 3.2 km/h 10.1 km/h 98 % 0.0 mm
04:17 12.7 °C 13.0 °C 1001.9 hPa West 4.7 km/h 10.1 km/h 98 % 0.0 mm
04:22 12.6 °C 13.0 °C 1001.9 hPa WSW 2.6 km/h 10.1 km/h 98 % 0.0 mm
04:27 12.6 °C 13.0 °C 1001.9 hPa Calm   7.9 km/h 98 % 0.0 mm
04:32 12.6 °C 13.0 °C 1001.9 hPa WSW 7.9 km/h 7.9 km/h 98 % 0.0 mm
04:37 12.6 °C 13.0 °C 1001.9 hPa WSW 6.1 km/h 9.0 km/h 98 % 0.0 mm
04:42 12.5 °C 13.0 °C 1001.9 hPa Calm   9.0 km/h 98 % 0.0 mm
04:47 12.5 °C 13.0 °C 1001.9 hPa West 5.8 km/h 7.9 km/h 98 % 0.0 mm
04:52 12.5 °C 13.0 °C 1001.9 hPa WSW 9.0 km/h 9.3 km/h 98 % 0.0 mm
04:57 12.5 °C 13.0 °C 1001.9 hPa Calm   9.3 km/h 98 % 0.0 mm
05:02 12.5 °C 13.0 °C 1001.9 hPa Calm   10.1 km/h 98 % 0.0 mm
05:07 12.5 °C 13.0 °C 1001.9 hPa WSW 7.9 km/h 10.1 km/h 98 % 0.0 mm
05:13 12.5 °C 13.0 °C 1001.9 hPa WSW 4.7 km/h 13.0 km/h 98 % 0.0 mm
05:18 12.3 °C 13.0 °C 1001.9 hPa WSW 6.4 km/h 13.0 km/h 98 % 0.0 mm
05:20 12.3 °C 13.0 °C 1001.9 hPa WSW 9.3 km/h 9.3 km/h 98 % 0.0 mm
05:21 12.3 °C 13.0 °C 1001.9 hPa WSW 4.7 km/h 9.3 km/h 98 % 0.0 mm
05:26 12.3 °C 13.0 °C 1001.9 hPa SW 6.9 km/h 9.7 km/h 98 % 0.0 mm
05:31 12.3 °C 13.0 °C 1002.9 hPa SW 4.3 km/h 9.7 km/h 98 % 0.0 mm
05:36 12.1 °C 12.0 °C 1002.9 hPa Calm   7.9 km/h 98 % 0.0 mm
05:41 12.0 °C 12.0 °C 1002.9 hPa SSW 6.9 km/h 6.9 km/h 98 % 0.0 mm
05:46 11.9 °C 12.0 °C 1001.9 hPa Calm   7.6 km/h 98 % 0.0 mm
05:51 11.9 °C 12.0 °C 1001.9 hPa SW 5.0 km/h 10.1 km/h 98 % 0.0 mm
05:56 11.9 °C 12.0 °C 1001.9 hPa SSW 6.1 km/h 10.1 km/h 98 % 0.0 mm
06:01 11.9 °C 12.0 °C 1002.9 hPa West 6.9 km/h 8.7 km/h 98 % 0.0 mm
06:06 11.7 °C 12.0 °C 1002.9 hPa Calm   9.0 km/h 98 % 0.0 mm
06:11 11.7 °C 12.0 °C 1002.9 hPa WSW 6.4 km/h 9.7 km/h 98 % 0.0 mm
06:16 11.6 °C 12.0 °C 1002.9 hPa WSW 5.8 km/h 9.7 km/h 98 % 0.0 mm
06:21 11.6 °C 12.0 °C 1002.9 hPa WSW 6.4 km/h 6.4 km/h 98 % 0.0 mm
06:26 11.5 °C 12.0 °C 1002.9 hPa WSW 6.9 km/h 6.9 km/h 98 % 0.0 mm
06:28 11.5 °C 12.0 °C 1002.9 hPa WSW 4.7 km/h 6.9 km/h 98 % 0.0 mm
06:33 11.3 °C 11.0 °C 1002.9 hPa Calm   6.9 km/h 98 % 0.0 mm
06:38 11.3 °C 11.0 °C 1002.9 hPa Calm   6.9 km/h 98 % 0.0 mm
06:43 11.3 °C 11.0 °C 1002.9 hPa WSW 5.5 km/h 6.9 km/h 98 % 0.0 mm
06:48 11.3 °C 11.0 °C 1002.9 hPa West 6.1 km/h 7.6 km/h 98 % 0.0 mm
06:53 11.2 °C 11.0 °C 1002.9 hPa WSW 7.6 km/h 7.6 km/h 98 % 0.0 mm
06:58 11.2 °C 11.0 °C 1002.9 hPa Calm   7.6 km/h 98 % 0.0 mm
07:03 11.1 °C 11.0 °C 1001.9 hPa WSW 4.3 km/h 7.9 km/h 98 % 0.0 mm
07:08 11.1 °C 11.0 °C 1001.9 hPa Calm   7.9 km/h 98 % 0.0 mm
07:09 11.1 °C 11.0 °C 1001.9 hPa Calm   7.9 km/h 98 % 0.0 mm
07:14 10.9 °C 11.0 °C 1001.9 hPa Calm   6.1 km/h 98 % 0.0 mm
07:19 11.0 °C 11.0 °C 1003.9 hPa WSW 4.7 km/h 5.8 km/h 98 % 0.0 mm
07:22 11.0 °C 11.0 °C 1003.9 hPa Calm   5.8 km/h 98 % 0.0 mm
07:27 11.0 °C 11.0 °C 1003.9 hPa Calm   4.7 km/h 98 % 0.0 mm
07:32 10.8 °C 11.0 °C 1002.9 hPa Calm   6.4 km/h 98 % 0.0 mm
07:37 10.9 °C 11.0 °C 1002.9 hPa Calm   6.4 km/h 98 % 0.0 mm
07:42 10.9 °C 11.0 °C 1002.9 hPa Calm   4.0 km/h 98 % 0.0 mm
07:47 10.9 °C 11.0 °C 1005.0 hPa Calm   4.0 km/h 98 % 0.0 mm
07:52 10.9 °C 11.0 °C 1005.0 hPa Calm     98 % 0.0 mm
07:57 10.9 °C 11.0 °C 1005.0 hPa Calm     98 % 0.0 mm
07:58 10.9 °C 11.0 °C 1005.0 hPa Calm     98 % 0.0 mm
08:03 11.0 °C 11.0 °C 1005.0 hPa Calm     98 % 0.0 mm
08:08 11.0 °C 11.0 °C 1005.0 hPa Calm     98 % 0.0 mm
08:13 11.2 °C 11.0 °C 1005.0 hPa West 5.5 km/h 5.5 km/h 98 % 0.0 mm
08:18 11.4 °C 11.0 °C 1005.0 hPa WSW 4.3 km/h 6.9 km/h 98 % 0.0 mm
08:23 11.7 °C 12.0 °C 1005.0 hPa West 6.9 km/h 9.0 km/h 98 % 0.0 mm
08:28 11.7 °C 12.0 °C 1005.0 hPa West 7.6 km/h 9.0 km/h 98 % 0.0 mm
08:33 12.1 °C 12.0 °C 1005.0 hPa West 5.5 km/h 8.7 km/h 98 % 0.0 mm
08:38 12.4 °C 13.0 °C 1005.0 hPa WSW 7.6 km/h 9.0 km/h 98 % 0.0 mm
08:43 12.6 °C 13.0 °C 1005.0 hPa WSW 6.4 km/h 9.7 km/h 98 % 0.0 mm
08:48 12.8 °C 13.0 °C 1003.9 hPa WSW 7.9 km/h 9.7 km/h 98 % 0.0 mm
08:54 12.9 °C 13.0 °C 1003.9 hPa WSW 4.7 km/h 9.7 km/h 98 % 0.0 mm
08:59 13.3 °C 13.0 °C 1003.9 hPa Calm   10.1 km/h 98 % 0.0 mm
09:04 13.5 °C 14.0 °C 1006.0 hPa SW 6.4 km/h 10.1 km/h 98 % 0.0 mm
09:09 13.6 °C 14.0 °C 1006.0 hPa WSW 5.8 km/h 10.1 km/h 98 % 0.0 mm
09:14 13.8 °C 14.0 °C 1006.0 hPa WSW 10.1 km/h 13.0 km/h 98 % 0.0 mm
09:19 13.8 °C 14.0 °C 1005.0 hPa SSW 11.9 km/h 14.0 km/h 98 % 0.0 mm
09:24 14.0 °C 14.0 °C 1005.0 hPa WSW 12.2 km/h 15.4 km/h 98 % 0.0 mm
09:26 14.0 °C 14.0 °C 1005.0 hPa WSW 12.2 km/h 15.4 km/h 98 % 0.0 mm
09:31 14.4 °C 14.0 °C 1003.9 hPa West 9.3 km/h 12.2 km/h 98 % 0.0 mm
09:36 14.4 °C 14.0 °C 1003.9 hPa WSW 14.0 km/h 14.0 km/h 98 % 0.0 mm
09:41 14.5 °C 14.0 °C 1003.9 hPa WSW 13.0 km/h 14.0 km/h 96 % 0.0 mm
09:46 14.6 °C 14.0 °C 1005.0 hPa WSW 15.4 km/h 15.4 km/h 95 % 0.0 mm
09:51 14.7 °C 14.0 °C 1005.0 hPa West 10.5 km/h 15.4 km/h 95 % 0.0 mm
09:56 14.9 °C 14.0 °C 1005.0 hPa WSW 15.4 km/h 16.6 km/h 94 % 0.0 mm
10:01 15.0 °C 14.0 °C 1005.0 hPa West 13.7 km/h 16.6 km/h 93 % 0.0 mm
10:06 15.0 °C 14.0 °C 1005.0 hPa WSW 13.0 km/h 16.3 km/h 93 % 0.0 mm
10:11 15.3 °C 14.0 °C 1005.0 hPa SW 12.6 km/h 16.3 km/h 93 % 0.0 mm
10:16 15.5 °C 14.0 °C 1006.0 hPa WSW 11.9 km/h 15.1 km/h 92 % 0.0 mm
10:22 15.3 °C 14.0 °C 1006.0 hPa West 15.8 km/h 20.1 km/h 91 % 0.0 mm
10:27 15.3 °C 14.0 °C 1006.0 hPa WSW 12.2 km/h 20.1 km/h 91 % 0.0 mm
10:32 15.8 °C 14.0 °C 1006.0 hPa West 10.1 km/h 15.8 km/h 90 % 0.0 mm
10:37 15.9 °C 14.0 °C 1006.0 hPa WSW 9.7 km/h 14.0 km/h 90 % 0.0 mm
10:42 15.9 °C 14.0 °C 1006.0 hPa WSW 13.7 km/h 14.0 km/h 88 % 0.0 mm
10:47 16.1 °C 14.0 °C 1006.0 hPa West 17.2 km/h 17.2 km/h 88 % 0.0 mm
10:52 16.1 °C 14.0 °C 1006.0 hPa West 17.2 km/h 17.2 km/h 88 % 0.0 mm
10:57 16.1 °C 14.0 °C 1006.0 hPa WSW 10.1 km/h 17.2 km/h 85 % 0.0 mm
11:02 16.1 °C 14.0 °C 1006.0 hPa WSW 13.0 km/h 17.7 km/h 85 % 0.0 mm
11:07 16.4 °C 14.0 °C 1006.0 hPa WSW 6.4 km/h 17.7 km/h 84 % 0.0 mm
11:12 16.7 °C 14.0 °C 1006.0 hPa WSW 13.7 km/h 20.9 km/h 82 % 0.0 mm
11:17 16.9 °C 14.0 °C 1007.0 hPa WNW 13.7 km/h 20.9 km/h 81 % 0.0 mm
11:22 16.9 °C 14.0 °C 1007.0 hPa NNW 12.2 km/h 21.2 km/h 81 % 0.0 mm
11:27 16.5 °C 13.0 °C 1007.0 hPa WSW 14.0 km/h 21.2 km/h 81 % 0.0 mm
11:32 16.5 °C 13.0 °C 1007.0 hPa West 15.8 km/h 15.8 km/h 81 % 0.0 mm
11:37 16.1 °C 13.0 °C 1007.0 hPa West 8.7 km/h 17.7 km/h 79 % 0.0 mm
11:42 16.6 °C 13.0 °C 1007.0 hPa WSW 17.7 km/h 24.5 km/h 78 % 0.0 mm
11:47 16.6 °C 13.0 °C 1007.0 hPa West 23.8 km/h 24.5 km/h 78 % 0.0 mm
11:52 16.6 °C 13.0 °C 1007.0 hPa WSW 19.8 km/h 23.8 km/h 78 % 0.0 mm
11:58 16.6 °C 13.0 °C 1007.0 hPa WSW 13.0 km/h 23.0 km/h 78 % 0.0 mm
12:03 18.0 °C 12.0 °C 1007.0 hPa WSW 16.6 km/h 20.6 km/h 69 % 0.0 mm
12:08 18.0 °C 13.0 °C 1007.0 hPa SW 12.2 km/h 20.6 km/h 70 % 0.0 mm
12:13 18.4 °C 13.0 °C 1007.0 hPa West 12.2 km/h 20.9 km/h 69 % 0.0 mm
12:18 18.4 °C 13.0 °C 1006.0 hPa West 20.6 km/h 20.9 km/h 69 % 0.0 mm
12:23 18.2 °C 12.0 °C 1006.0 hPa WNW 16.9 km/h 21.2 km/h 66 % 0.0 mm
12:28 18.2 °C 12.0 °C 1006.0 hPa WNW 16.9 km/h 24.5 km/h 66 % 0.0 mm
12:33 17.5 °C 12.0 °C 1007.0 hPa West 10.5 km/h 24.5 km/h 67 % 0.0 mm
12:43 17.9 °C 12.0 °C 1007.0 hPa NNW 9.0 km/h 17.2 km/h 68 % 0.0 mm
12:48 17.9 °C 12.0 °C 1007.0 hPa NW 9.7 km/h 17.2 km/h 68 % 0.0 mm
12:53 17.9 °C 12.0 °C 1007.0 hPa West 15.8 km/h 23.8 km/h 68 % 0.0 mm
12:58 17.5 °C 12.0 °C 1007.0 hPa WSW 7.9 km/h 23.8 km/h 68 % 0.0 mm
13:03 18.6 °C 13.0 °C 1006.0 hPa WNW 11.6 km/h 15.8 km/h 67 % 0.0 mm
13:08 18.6 °C 13.0 °C 1006.0 hPa NNW 6.1 km/h 22.4 km/h 67 % 0.0 mm
13:13 18.6 °C 12.0 °C 1006.0 hPa WNW 17.7 km/h 22.4 km/h 65 % 0.0 mm
13:18 18.6 °C 12.0 °C 1006.0 hPa NW 19.1 km/h 19.1 km/h 65 % 0.0 mm
13:23 19.2 °C 12.0 °C 1006.0 hPa West 14.0 km/h 19.1 km/h 62 % 0.0 mm
13:28 19.2 °C 12.0 °C 1006.0 hPa West 6.1 km/h 14.3 km/h 62 % 0.0 mm
13:33 19.4 °C 12.0 °C 1007.0 hPa WSW 16.3 km/h 27.7 km/h 61 % 0.0 mm
13:38 19.5 °C 12.0 °C 1007.0 hPa West 25.9 km/h 27.7 km/h 60 % 0.0 mm
13:43 19.7 °C 10.0 °C 1007.0 hPa WNW 20.6 km/h 25.9 km/h 55 % 0.0 mm
13:48 19.1 °C 10.0 °C 1007.0 hPa West 16.3 km/h 25.9 km/h 57 % 0.0 mm
13:53 19.1 °C 10.0 °C 1007.0 hPa West 15.8 km/h 21.2 km/h 57 % 0.0 mm
13:58 18.8 °C 10.0 °C 1007.0 hPa West 16.6 km/h 20.9 km/h 58 % 0.0 mm
14:04 19.2 °C 11.0 °C 1007.0 hPa West 17.7 km/h 25.9 km/h 57 % 0.0 mm
14:09 19.5 °C 11.0 °C 1007.0 hPa WSW 12.6 km/h 25.9 km/h 58 % 0.0 mm
14:14 19.8 °C 11.0 °C 1007.0 hPa West 17.7 km/h 23.3 km/h 57 % 0.0 mm
14:19 19.1 °C 10.0 °C 1007.0 hPa West 14.0 km/h 23.3 km/h 55 % 0.0 mm
14:24 19.4 °C 11.0 °C 1007.0 hPa West 17.7 km/h 27.4 km/h 58 % 0.0 mm
14:29 19.7 °C 11.0 °C 1007.0 hPa West 22.4 km/h 27.4 km/h 58 % 0.0 mm
14:34 19.5 °C 10.0 °C 1008.0 hPa West 13.7 km/h 28.8 km/h 53 % 0.0 mm
14:39 19.8 °C 10.0 °C 1008.0 hPa West 13.7 km/h 28.8 km/h 55 % 0.0 mm
14:44 20.1 °C 11.0 °C 1008.0 hPa West 16.3 km/h 28.8 km/h 57 % 0.0 mm
14:49 20.2 °C 11.0 °C 1007.0 hPa West 15.8 km/h 28.8 km/h 54 % 0.0 mm
14:54 20.2 °C 11.0 °C 1007.0 hPa West 17.7 km/h 24.8 km/h 55 % 0.0 mm
14:59 19.8 °C 10.0 °C 1007.0 hPa WNW 19.5 km/h 24.8 km/h 55 % 0.0 mm
15:04 19.8 °C 10.0 °C 1008.0 hPa WSW 21.6 km/h 22.4 km/h 55 % 0.0 mm
15:09 20.2 °C 11.0 °C 1008.0 hPa West 16.9 km/h 24.5 km/h 55 % 0.0 mm
15:14 20.1 °C 9.0 °C 1008.0 hPa SSW 27.7 km/h 32.3 km/h 50 % 0.3 mm
15:19 20.1 °C 10.0 °C 1008.0 hPa WSW 12.6 km/h 32.3 km/h 53 % 0.3 mm
15:24 20.0 °C 10.0 °C 1008.0 hPa West 25.9 km/h 31.4 km/h 51 % 0.3 mm
15:29 19.5 °C 10.0 °C 1008.0 hPa West 21.2 km/h 30.9 km/h 52 % 0.3 mm
15:34 19.5 °C 10.0 °C 1008.0 hPa West 9.3 km/h 28.0 km/h 52 % 0.3 mm
15:39 19.1 °C 10.0 °C 1008.0 hPa West 21.2 km/h 24.5 km/h 55 % 0.3 mm
15:44 19.5 °C 11.0 °C 1008.0 hPa South 19.5 km/h 24.5 km/h 58 % 0.3 mm
15:46 19.5 °C 11.0 °C 1008.0 hPa WNW 17.2 km/h 28.5 km/h 58 % 0.3 mm
15:51 19.5 °C 11.0 °C 1008.0 hPa West 23.8 km/h 28.5 km/h 58 % 0.3 mm
15:56 20.0 °C 9.0 °C 1008.0 hPa WSW 21.2 km/h 28.5 km/h 50 % 0.3 mm
16:01 20.2 °C 10.0 °C 1008.0 hPa SW 27.7 km/h 27.7 km/h 51 % 0.3 mm
16:06 20.0 °C 9.0 °C 1008.0 hPa West 30.9 km/h 30.9 km/h 49 % 0.3 mm
16:11 20.1 °C 10.0 °C 1008.0 hPa WSW 12.6 km/h 30.9 km/h 51 % 0.3 mm
16:16 20.0 °C 9.0 °C 1008.0 hPa SSW 31.4 km/h 32.0 km/h 48 % 0.0 mm
16:21 20.0 °C 9.0 °C 1008.0 hPa WSW 21.9 km/h 37.0 km/h 48 % 0.0 mm
16:26 20.0 °C 9.0 °C 1008.0 hPa WSW 25.3 km/h 37.0 km/h 48 % 0.0 mm
16:36 19.7 °C 9.0 °C 1008.0 hPa WSW 25.6 km/h 31.4 km/h 49 % 0.0 mm
16:41 19.1 °C 8.0 °C 1008.0 hPa West 27.0 km/h 30.2 km/h 49 % 0.0 mm
16:46 19.1 °C 8.0 °C 1009.0 hPa West 20.6 km/h 31.4 km/h 49 % 0.0 mm
16:51 19.2 °C 9.0 °C 1009.0 hPa WSW 28.5 km/h 31.4 km/h 50 % 0.0 mm
16:56 19.2 °C 9.0 °C 1009.0 hPa West 20.6 km/h 31.4 km/h 50 % 0.0 mm
17:02 19.2 °C 9.0 °C 1009.0 hPa West 20.1 km/h 32.0 km/h 50 % 0.0 mm
17:07 19.2 °C 9.0 °C 1009.0 hPa West 23.0 km/h 32.0 km/h 50 % 0.0 mm
17:12 19.2 °C 9.0 °C 1009.0 hPa WSW 20.9 km/h 28.0 km/h 50 % 0.0 mm
17:17 19.2 °C 9.0 °C 1009.0 hPa WSW 27.0 km/h 32.3 km/h 50 % 0.0 mm
17:22 18.9 °C 9.0 °C 1009.0 hPa WSW 20.6 km/h 32.3 km/h 52 % 0.0 mm
17:27 18.9 °C 9.0 °C 1009.0 hPa West 24.8 km/h 31.7 km/h 52 % 0.0 mm
17:32 18.8 °C 9.0 °C 1009.0 hPa West 30.2 km/h 30.2 km/h 54 % 0.0 mm
17:37 18.6 °C 9.0 °C 1009.0 hPa West 28.5 km/h 30.2 km/h 55 % 0.0 mm
17:42 18.6 °C 9.0 °C 1009.0 hPa WSW 14.3 km/h 28.5 km/h 55 % 0.0 mm
17:47 18.4 °C 10.0 °C 1009.0 hPa West 20.6 km/h 28.5 km/h 57 % 0.0 mm
17:52 18.5 °C 9.0 °C 1009.0 hPa West 24.8 km/h 27.4 km/h 55 % 0.0 mm
17:57 17.7 °C 9.0 °C 1009.0 hPa West 15.8 km/h 31.4 km/h 56 % 0.0 mm
18:02 17.7 °C 9.0 °C 1009.0 hPa WSW 16.9 km/h 31.4 km/h 58 % 0.0 mm
18:12 18.1 °C 10.0 °C 1009.0 hPa WSW 24.5 km/h 27.4 km/h 58 % 0.0 mm
18:17 18.1 °C 10.0 °C 1009.0 hPa WSW 20.6 km/h 28.8 km/h 58 % 0.0 mm
18:22 17.8 °C 10.0 °C 1009.0 hPa West 24.5 km/h 28.8 km/h 60 % 0.0 mm
18:27 17.7 °C 10.0 °C 1009.0 hPa West 15.1 km/h 27.7 km/h 59 % 0.0 mm
18:32 17.7 °C 10.0 °C 1009.0 hPa WSW 24.5 km/h 27.7 km/h 59 % 0.0 mm
18:38 17.7 °C 10.0 °C 1009.0 hPa WSW 16.3 km/h 24.5 km/h 59 % 0.0 mm
18:43 17.7 °C 10.0 °C 1009.0 hPa WSW 14.0 km/h 23.3 km/h 59 % 0.0 mm
18:48 17.7 °C 10.0 °C 1009.0 hPa West 16.6 km/h 21.6 km/h 59 % 0.0 mm
18:53 17.2 °C 10.0 °C 1009.0 hPa WSW 16.9 km/h 27.4 km/h 62 % 0.0 mm
18:57 17.2 °C 10.0 °C 1009.0 hPa WSW 15.8 km/h 27.4 km/h 62 % 0.0 mm
19:03 17.1 °C 10.0 °C 1009.0 hPa WSW 9.7 km/h 27.4 km/h 64 % 0.0 mm
19:08 17.1 °C 11.0 °C 1009.0 hPa SW 10.8 km/h 15.8 km/h 65 % 0.0 mm
19:12 17.1 °C 11.0 °C 1009.0 hPa WSW 12.6 km/h 21.9 km/h 65 % 0.0 mm
19:18 17.1 °C 11.0 °C 1008.0 hPa West 13.7 km/h 21.9 km/h 65 % 0.0 mm
19:23 17.1 °C 11.0 °C 1008.0 hPa WSW 12.6 km/h 22.7 km/h 65 % 0.0 mm
19:28 16.3 °C 11.0 °C 1008.0 hPa SW 7.9 km/h 22.7 km/h 68 % 0.0 mm
19:33 16.3 °C 11.0 °C 1008.0 hPa WSW 14.0 km/h 19.5 km/h 68 % 0.0 mm
19:38 16.3 °C 11.0 °C 1008.0 hPa WSW 13.0 km/h 19.5 km/h 68 % 0.0 mm
19:43 16.3 °C 11.0 °C 1008.0 hPa WSW 13.7 km/h 16.6 km/h 68 % 0.0 mm
19:48 16.3 °C 11.0 °C 1008.0 hPa WSW 12.2 km/h 15.8 km/h 68 % 0.0 mm
19:53 15.2 °C 11.0 °C 1008.0 hPa WSW 6.4 km/h 15.8 km/h 73 % 0.0 mm
19:58 15.2 °C 11.0 °C 1008.0 hPa WSW 10.1 km/h 15.8 km/h 73 % 0.0 mm
20:03 15.0 °C 11.0 °C 1008.0 hPa WSW 12.2 km/h 15.8 km/h 74 % 0.0 mm
20:08 15.0 °C 11.0 °C 1008.0 hPa WSW 10.5 km/h 19.8 km/h 74 % 0.0 mm
20:13 14.9 °C 11.0 °C 1008.0 hPa WSW 6.9 km/h 19.8 km/h 75 % 0.0 mm
20:18 15.0 °C 11.0 °C 1008.0 hPa WSW 7.9 km/h 14.0 km/h 76 % 0.0 mm
20:23 15.0 °C 11.0 °C 1008.0 hPa WSW 6.9 km/h 12.2 km/h 76 % 0.0 mm
20:28 15.0 °C 11.0 °C 1008.0 hPa SSW 8.7 km/h 13.7 km/h 76 % 0.0 mm
20:33 15.0 °C 11.0 °C 1008.0 hPa SW 15.4 km/h 17.2 km/h 76 % 0.0 mm
20:38 15.0 °C 11.0 °C 1008.0 hPa West 9.3 km/h 17.2 km/h 76 % 0.0 mm
20:44 15.0 °C 11.0 °C 1008.0 hPa SSW 7.9 km/h 16.6 km/h 76 % 0.0 mm
20:49 15.0 °C 11.0 °C 1007.0 hPa SW 7.9 km/h 19.8 km/h 76 % 0.0 mm
20:54 15.0 °C 11.0 °C 1007.0 hPa SSW 6.9 km/h 19.8 km/h 76 % 0.0 mm
20:59 15.0 °C 11.0 °C 1007.0 hPa SW 11.9 km/h 13.0 km/h 76 % 0.0 mm
21:04 15.0 °C 11.0 °C 1007.0 hPa SW 5.0 km/h 15.8 km/h 76 % 0.0 mm
21:09 15.0 °C 11.0 °C 1007.0 hPa WSW 10.1 km/h 15.8 km/h 78 % 0.0 mm
21:14 15.0 °C 11.0 °C 1007.0 hPa SW 4.7 km/h 14.0 km/h 78 % 0.0 mm
21:19 15.0 °C 11.0 °C 1007.0 hPa SW 3.2 km/h 14.0 km/h 78 % 0.0 mm
21:24 14.7 °C 12.0 °C 1007.0 hPa Calm   11.9 km/h 80 % 0.0 mm
21:29 14.7 °C 12.0 °C 1007.0 hPa SSW 6.4 km/h 13.7 km/h 80 % 0.0 mm
21:34 14.5 °C 12.0 °C 1007.0 hPa SSW 10.1 km/h 13.7 km/h 81 % 0.0 mm
21:39 14.5 °C 12.0 °C 1007.0 hPa Calm   11.6 km/h 81 % 0.0 mm
21:44 14.5 °C 12.0 °C 1007.0 hPa Calm   11.6 km/h 81 % 0.0 mm
21:49 14.5 °C 12.0 °C 1007.0 hPa SW 10.1 km/h 10.1 km/h 81 % 0.0 mm
21:54 14.5 °C 12.0 °C 1007.0 hPa SW 7.2 km/h 10.1 km/h 81 % 0.0 mm
21:59 14.5 °C 12.0 °C 1007.0 hPa SSW 8.7 km/h 11.9 km/h 81 % 0.0 mm
22:04 14.5 °C 12.0 °C 1008.0 hPa Calm   11.9 km/h 81 % 0.0 mm
22:09 14.5 °C 12.0 °C 1008.0 hPa SSW 4.7 km/h 11.6 km/h 81 % 0.0 mm
22:14 14.5 °C 12.0 °C 1008.0 hPa SW 9.7 km/h 15.8 km/h 81 % 0.0 mm
22:19 14.5 °C 12.0 °C 1007.0 hPa South 6.4 km/h 15.8 km/h 81 % 0.0 mm
22:24 14.5 °C 12.0 °C 1007.0 hPa SSW 11.9 km/h 11.9 km/h 81 % 0.0 mm
22:29 14.4 °C 12.0 °C 1007.0 hPa SSW 1.4 km/h 17.2 km/h 83 % 0.0 mm
22:34 14.4 °C 12.0 °C 1007.0 hPa SW 4.3 km/h 17.2 km/h 83 % 0.0 mm
22:37 14.4 °C 12.0 °C 1007.0 hPa WSW 7.9 km/h 10.5 km/h 83 % 0.0 mm
22:42 14.4 °C 12.0 °C 1007.0 hPa SW 3.2 km/h 12.6 km/h 83 % 0.0 mm
22:47 14.4 °C 12.0 °C 1007.0 hPa SSW 10.1 km/h 12.6 km/h 83 % 0.0 mm
22:52 14.4 °C 12.0 °C 1007.0 hPa South 5.5 km/h 11.9 km/h 83 % 0.0 mm
22:57 14.4 °C 12.0 °C 1007.0 hPa SSW 5.8 km/h 13.7 km/h 83 % 0.0 mm
23:02 14.4 °C 12.0 °C 1006.0 hPa SW 6.9 km/h 13.7 km/h 83 % 0.0 mm
23:07 14.3 °C 12.0 °C 1006.0 hPa WSW 9.7 km/h 15.1 km/h 84 % 0.0 mm
23:12 14.3 °C 12.0 °C 1006.0 hPa South 7.9 km/h 19.1 km/h 84 % 0.0 mm
23:17 14.3 °C 12.0 °C 1005.0 hPa South 8.7 km/h 19.1 km/h 84 % 0.0 mm
23:22 14.4 °C 12.0 °C 1005.0 hPa SW 12.2 km/h 15.8 km/h 84 % 0.0 mm
23:27 14.4 °C 12.0 °C 1005.0 hPa South 13.7 km/h 15.8 km/h 84 % 0.0 mm
23:32 14.4 °C 12.0 °C 1003.9 hPa South 8.7 km/h 16.6 km/h 84 % 0.0 mm
23:37 14.4 °C 12.0 °C 1003.9 hPa SSW 12.2 km/h 14.0 km/h 84 % 0.0 mm
23:42 14.4 °C 12.0 °C 1003.9 hPa SW 12.2 km/h 14.0 km/h 84 % 0.0 mm
23:47 14.4 °C 12.0 °C 1005.0 hPa SSW 12.6 km/h 14.0 km/h 84 % 0.0 mm
23:52 14.4 °C 12.0 °C 1005.0 hPa South 10.1 km/h 16.9 km/h 84 % 0.0 mm
23:57 14.4 °C 12.0 °C 1005.0 hPa SSW 17.7 km/h 24.8 km/h 84 % 0.0 mm
Le Gheer Warneton
Courtoisie de Weather Underground - 2.25 mb

Mise a jour : 17-12-17 08:50:15
Généré par Cumulus 1.9.4 (1099)